EZY4583 ENZV-EDDW

Flight info

Callsign EZY4583
Flight time 1h 3m
Altitude 37000
Route BIVKI DCT ELGIK DCT ATTUS DCT BADOS DCT OMWEG Y348 ELSOB N125 WSN L23 GIBMA GIBMA2P
Aircraft A320/M-SDE3FGHIRWY/LB1

Departure

Time 2026-05-07 19:47
Airport Stavanger Airport, Sola (ENZV)

Arrival

Time 2026-05-07 20:50
Airport Bremen Airport (EDDW)
Time Latitude Longitude Altitude Speed Heading
2026-05-07 18:56 58.88081 5.62977 28 ft 0 kts 314°
2026-05-07 19:31 58.88081 5.62978 25 ft 1 kts 314°
2026-05-07 19:32 58.88065 5.63009 27 ft 4 kts 314°
2026-05-07 19:32 58.88047 5.63047 27 ft 4 kts 314°
2026-05-07 19:32 58.88033 5.63074 27 ft 0 kts 314°
2026-05-07 19:36 58.88036 5.63065 27 ft 2 kts 304°
2026-05-07 19:36 58.88037 5.63029 27 ft 3 kts 259°
2026-05-07 19:36 58.88024 5.63005 27 ft 3 kts 210°
2026-05-07 19:37 58.88004 5.63009 27 ft 2 kts 157°
2026-05-07 19:37 58.87989 5.63052 27 ft 5 kts 114°
2026-05-07 19:37 58.87978 5.63117 28 ft 5 kts 107°
2026-05-07 19:37 58.87970 5.63165 28 ft 3 kts 107°
2026-05-07 19:38 58.87960 5.63222 29 ft 9 kts 107°
2026-05-07 19:38 58.87954 5.63267 29 ft 0 kts 106°
2026-05-07 19:39 58.87953 5.63269 29 ft 2 kts 106°
2026-05-07 19:39 58.87951 5.63350 31 ft 5 kts 72°
2026-05-07 19:40 58.87965 5.63381 31 ft 2 kts 41°
2026-05-07 19:40 58.87995 5.63410 31 ft 12 kts 21°
2026-05-07 19:40 58.88097 5.63435 30 ft 15 kts 358°
2026-05-07 19:40 58.88199 5.63431 30 ft 14 kts 359°
2026-05-07 19:41 58.88295 5.63427 31 ft 13 kts 359°
2026-05-07 19:41 58.88379 5.63424 31 ft 11 kts 359°
2026-05-07 19:41 58.88453 5.63422 31 ft 10 kts 356°
2026-05-07 19:41 58.88521 5.63417 31 ft 9 kts 359°
2026-05-07 19:42 58.88584 5.63416 31 ft 8 kts
2026-05-07 19:42 58.88637 5.63417 32 ft 7 kts
2026-05-07 19:42 58.88731 5.63417 32 ft 20 kts 359°
2026-05-07 19:42 58.88875 5.63414 30 ft 21 kts
2026-05-07 19:43 58.89010 5.63410 27 ft 12 kts 359°
2026-05-07 19:43 58.89093 5.63408 26 ft 12 kts 358°
2026-05-07 19:43 58.89173 5.63404 26 ft 11 kts 359°
2026-05-07 19:43 58.89245 5.63401 25 ft 10 kts 359°
2026-05-07 19:44 58.89313 5.63411 23 ft 11 kts 18°
2026-05-07 19:44 58.89346 5.63547 18 ft 11 kts 95°
2026-05-07 19:44 58.89345 5.63573 18 ft 0 kts 94°
2026-05-07 19:44 58.89345 5.63579 18 ft 0 kts 94°
2026-05-07 19:45 58.89344 5.63596 18 ft 2 kts 94°
2026-05-07 19:45 58.89340 5.63691 18 ft 14 kts 107°
2026-05-07 19:45 58.89256 5.63738 20 ft 9 kts 180°
2026-05-07 19:45 58.89251 5.63738 20 ft 0 kts 180°
2026-05-07 19:46 58.89197 5.63741 21 ft 36 kts 178°
2026-05-07 19:46 58.88663 5.63753 29 ft 113 kts 179°
2026-05-07 19:47 58.87675 5.63768 119 ft 162 kts 180°
2026-05-07 19:47 58.86580 5.63815 962 ft 153 kts 176°
2026-05-07 19:47 58.85523 5.63915 1826 ft 153 kts 176°
2026-05-07 19:47 58.84397 5.64030 2383 ft 171 kts 177°
2026-05-07 19:48 58.83122 5.64084 2871 ft 196 kts 179°
2026-05-07 19:48 58.81680 5.64100 3506 ft 219 kts 179°
2026-05-07 19:48 58.80082 5.64119 4202 ft 240 kts 178°
2026-05-07 19:48 58.78388 5.64190 5110 ft 251 kts 177°
2026-05-07 19:49 58.76622 5.64271 5767 ft 256 kts 178°
2026-05-07 19:49 58.74845 5.64323 5952 ft 255 kts 179°
2026-05-07 19:49 58.73071 5.64366 5997 ft 255 kts 179°
2026-05-07 19:49 58.71297 5.64419 5945 ft 255 kts 178°
2026-05-07 19:50 58.69536 5.64708 5909 ft 254 kts 169°
2026-05-07 19:50 58.67852 5.65701 5914 ft 254 kts 156°
2026-05-07 19:50 58.66349 5.67478 5959 ft 256 kts 142°
2026-05-07 19:50 58.65053 5.69836 6002 ft 258 kts 135°
2026-05-07 19:51 58.63801 5.72407 6725 ft 265 kts 135°
2026-05-07 19:51 58.62542 5.74983 7878 ft 266 kts 136°
2026-05-07 19:51 58.61226 5.77522 8885 ft 271 kts 142°
2026-05-07 19:51 58.59632 5.79453 9876 ft 273 kts 155°
2026-05-07 19:52 58.57923 5.81207 10617 ft 289 kts 155°
2026-05-07 19:52 58.56073 5.83077 11043 ft 313 kts 155°
2026-05-07 19:52 58.54075 5.85090 11546 ft 332 kts 155°
2026-05-07 19:52 58.52001 5.87187 12327 ft 341 kts 155°
2026-05-07 19:53 58.49902 5.89311 13172 ft 348 kts 155°
2026-05-07 19:53 58.47750 5.91492 14009 ft 354 kts 155°
2026-05-07 19:53 58.45526 5.93743 14787 ft 359 kts 155°
2026-05-07 19:53 58.43334 5.95956 15565 ft 364 kts 155°
2026-05-07 19:54 58.41075 5.98227 16353 ft 368 kts 155°
2026-05-07 19:54 58.38793 6.00516 17131 ft 373 kts 155°
2026-05-07 19:54 58.36480 6.02827 17892 ft 377 kts 156°
2026-05-07 19:54 58.34933 6.04369 18395 ft 380 kts 156°
2026-05-07 19:55 58.32574 6.06719 19031 ft 384 kts 155°
2026-05-07 19:55 58.30198 6.09086 19675 ft 388 kts 155°
2026-05-07 19:55 58.27793 6.11486 20300 ft 393 kts 155°
2026-05-07 19:55 58.25363 6.13906 20916 ft 397 kts 155°
2026-05-07 19:56 58.22898 6.16350 21519 ft 402 kts 155°
2026-05-07 19:56 58.20403 6.18822 22071 ft 407 kts 155°
2026-05-07 19:56 58.17879 6.21319 22637 ft 412 kts 155°
2026-05-07 19:56 58.15319 6.23849 23209 ft 417 kts 155°
2026-05-07 19:57 58.12731 6.26405 23777 ft 421 kts 155°
2026-05-07 19:57 58.10124 6.28974 24270 ft 425 kts 155°
2026-05-07 19:57 58.07490 6.31566 24790 ft 427 kts 155°
2026-05-07 19:57 58.04848 6.34163 25298 ft 430 kts 155°
2026-05-07 19:58 58.02184 6.36776 25827 ft 432 kts 155°
2026-05-07 19:58 57.99515 6.39391 26343 ft 434 kts 155°
2026-05-07 19:58 57.96830 6.42013 26850 ft 436 kts 155°
2026-05-07 19:58 57.94131 6.44646 27350 ft 438 kts 155°
2026-05-07 19:59 57.91415 6.47291 27836 ft 441 kts 155°
2026-05-07 19:59 57.88683 6.49944 28309 ft 443 kts 155°
2026-05-07 19:59 57.85932 6.52610 28773 ft 446 kts 155°
2026-05-07 19:59 57.83204 6.55252 29199 ft 448 kts 155°
2026-05-07 20:00 57.80419 6.57947 29631 ft 450 kts 155°
2026-05-07 20:00 57.77622 6.60647 30070 ft 453 kts 155°
2026-05-07 20:00 57.74809 6.63354 30423 ft 455 kts 155°
2026-05-07 20:00 57.71987 6.66063 30794 ft 456 kts 155°
2026-05-07 20:01 57.69160 6.68777 31219 ft 456 kts 155°
2026-05-07 20:01 57.66343 6.71478 31684 ft 455 kts 155°
2026-05-07 20:01 57.63523 6.74176 32157 ft 454 kts 155°
2026-05-07 20:01 57.60714 6.76859 32651 ft 453 kts 155°
2026-05-07 20:02 57.57946 6.79500 33129 ft 452 kts 155°
2026-05-07 20:02 57.55154 6.82163 33615 ft 450 kts 155°
2026-05-07 20:02 57.52362 6.84815 34100 ft 449 kts 155°
2026-05-07 20:02 57.49576 6.87450 34518 ft 448 kts 156°
2026-05-07 20:03 57.46763 6.89941 34908 ft 447 kts 158°
2026-05-07 20:03 57.43919 6.92260 35319 ft 446 kts 159°
2026-05-07 20:03 57.41059 6.94459 35729 ft 445 kts 160°
2026-05-07 20:03 57.38188 6.96609 36104 ft 445 kts 160°
2026-05-07 20:04 57.35321 6.98758 36466 ft 445 kts 160°
2026-05-07 20:04 57.32456 7.00937 36817 ft 445 kts 159°
2026-05-07 20:04 57.29595 7.03151 37097 ft 446 kts 159°
2026-05-07 20:04 57.26737 7.05386 37151 ft 446 kts 159°
2026-05-07 20:05 57.21034 7.09863 37150 ft 445 kts 159°
2026-05-07 20:05 57.15318 7.14324 37149 ft 446 kts 159°
2026-05-07 20:06 57.09595 7.18770 37152 ft 446 kts 159°
2026-05-07 20:06 57.03868 7.23186 37151 ft 446 kts 159°
2026-05-07 20:07 56.98175 7.27544 37148 ft 446 kts 159°
2026-05-07 20:07 56.92448 7.31931 37148 ft 446 kts 159°
2026-05-07 20:08 56.86717 7.36316 37151 ft 446 kts 159°
2026-05-07 20:08 56.80988 7.40687 37153 ft 446 kts 159°
2026-05-07 20:09 56.75259 7.45032 37153 ft 446 kts 159°
2026-05-07 20:10 56.66691 7.51487 37149 ft 446 kts 159°
2026-05-07 20:10 56.60962 7.55795 37140 ft 445 kts 158°
2026-05-07 20:11 56.55236 7.60098 37138 ft 446 kts 158°
2026-05-07 20:11 56.49499 7.64396 37146 ft 446 kts 158°
2026-05-07 20:12 56.43764 7.68666 37150 ft 446 kts 159°
2026-05-07 20:12 56.38019 7.72927 37149 ft 446 kts 159°
2026-05-07 20:13 56.32276 7.77181 37145 ft 446 kts 158°
2026-05-07 20:13 56.26535 7.81410 37152 ft 446 kts 158°
2026-05-07 20:14 56.20795 7.85625 37158 ft 446 kts 158°
2026-05-07 20:14 56.15091 7.89812 37156 ft 446 kts 158°
2026-05-07 20:15 56.09345 7.94004 37162 ft 446 kts 158°
2026-05-07 20:15 56.03608 7.98197 37141 ft 445 kts 158°
2026-05-07 20:16 55.97866 8.02379 37150 ft 446 kts 158°
2026-05-07 20:16 55.92119 8.06530 37153 ft 446 kts 158°
2026-05-07 20:17 55.86370 8.10663 37152 ft 446 kts 158°
2026-05-07 20:17 55.80623 8.14805 37154 ft 446 kts 158°
2026-05-07 20:18 55.74876 8.18925 37155 ft 446 kts 158°
2026-05-07 20:18 55.69119 8.23028 37154 ft 446 kts 159°
2026-05-07 20:19 55.63364 8.27107 37152 ft 446 kts 159°
2026-05-07 20:19 55.57609 8.31191 37150 ft 445 kts 158°
2026-05-07 20:20 55.51857 8.35281 37150 ft 445 kts 158°
2026-05-07 20:20 55.46106 8.39347 37146 ft 446 kts 158°
2026-05-07 20:21 55.40340 8.43403 37147 ft 446 kts 158°
2026-05-07 20:21 55.34578 8.47432 37153 ft 446 kts 159°
2026-05-07 20:22 55.28814 8.51465 37153 ft 446 kts 158°
2026-05-07 20:22 55.23048 8.55478 37149 ft 446 kts 159°
2026-05-07 20:23 55.17278 8.59475 37149 ft 446 kts 159°
2026-05-07 20:23 55.11534 8.63445 37147 ft 446 kts 159°
2026-05-07 20:24 55.05767 8.67435 37144 ft 446 kts 159°
2026-05-07 20:24 54.99990 8.71413 37146 ft 446 kts 159°
2026-05-07 20:25 54.94154 8.75052 37137 ft 445 kts 170°
2026-05-07 20:25 54.91075 8.75386 37137 ft 444 kts 185°
2026-05-07 20:25 54.88013 8.74671 37136 ft 445 kts 188°
2026-05-07 20:26 54.81891 8.73018 37131 ft 445 kts 189°
2026-05-07 20:26 54.75798 8.71360 37132 ft 446 kts 188°
2026-05-07 20:27 54.69666 8.69716 37135 ft 446 kts 188°
2026-05-07 20:27 54.63527 8.68089 37142 ft 446 kts 188°
2026-05-07 20:28 54.57401 8.66471 37148 ft 445 kts 188°
2026-05-07 20:28 54.54342 8.65667 36792 ft 443 kts 188°
2026-05-07 20:28 54.51294 8.64866 36003 ft 445 kts 187°
2026-05-07 20:28 54.48226 8.64061 35385 ft 446 kts 187°
2026-05-07 20:29 54.45147 8.63253 35168 ft 449 kts 187°
2026-05-07 20:29 54.38949 8.61617 35140 ft 451 kts 187°
2026-05-07 20:30 54.32750 8.59985 34789 ft 449 kts 186°
2026-05-07 20:30 54.29656 8.59175 33991 ft 451 kts 186°
2026-05-07 20:30 54.26548 8.58364 33052 ft 452 kts 186°
2026-05-07 20:30 54.23431 8.57554 32110 ft 454 kts 186°
2026-05-07 20:31 54.20324 8.56749 30881 ft 450 kts 187°
2026-05-07 20:31 54.17211 8.55943 29110 ft 456 kts 187°
2026-05-07 20:31 54.14044 8.55125 27837 ft 462 kts 187°
2026-05-07 20:31 54.10904 8.54316 26710 ft 463 kts 187°
2026-05-07 20:32 54.07717 8.53499 25514 ft 465 kts 188°
2026-05-07 20:32 54.04509 8.52677 24287 ft 467 kts 188°
2026-05-07 20:32 54.01292 8.51852 22937 ft 470 kts 188°
2026-05-07 20:32 53.98048 8.51018 21567 ft 472 kts 188°
2026-05-07 20:33 53.94810 8.50180 20566 ft 466 kts 189°
2026-05-07 20:33 53.91666 8.49367 19021 ft 450 kts 189°
2026-05-07 20:33 53.88597 8.48575 17281 ft 437 kts 189°
2026-05-07 20:33 53.85612 8.47807 15777 ft 431 kts 189°
2026-05-07 20:34 53.82662 8.47051 14563 ft 429 kts 189°
2026-05-07 20:34 53.79723 8.46305 13822 ft 423 kts 189°
2026-05-07 20:34 53.76833 8.45573 13300 ft 418 kts 189°
2026-05-07 20:34 53.73979 8.44849 12619 ft 413 kts 189°
2026-05-07 20:35 53.71140 8.44129 12127 ft 411 kts 189°
2026-05-07 20:35 53.68358 8.43424 11618 ft 398 kts 188°
2026-05-07 20:35 53.65665 8.42743 11254 ft 383 kts 188°
2026-05-07 20:35 53.63087 8.42091 10889 ft 370 kts 188°
2026-05-07 20:36 53.60564 8.41453 10295 ft 364 kts 188°
2026-05-07 20:36 53.58068 8.40823 9585 ft 361 kts 188°
2026-05-07 20:36 53.55598 8.40203 8834 ft 357 kts 188°
2026-05-07 20:36 53.53147 8.39588 8070 ft 355 kts 188°
2026-05-07 20:37 53.50715 8.38976 7388 ft 356 kts 187°
2026-05-07 20:37 53.48157 8.38333 7150 ft 380 kts 187°
2026-05-07 20:37 53.45554 8.37678 7106 ft 368 kts 187°
2026-05-07 20:37 53.43116 8.37064 7113 ft 341 kts 187°
2026-05-07 20:38 53.40841 8.36491 7122 ft 326 kts 187°
2026-05-07 20:38 53.38611 8.35934 7115 ft 323 kts 187°
2026-05-07 20:38 53.36386 8.35380 7116 ft 326 kts 187°
2026-05-07 20:38 53.34070 8.34805 7040 ft 332 kts 187°
2026-05-07 20:39 53.31854 8.34252 6917 ft 313 kts 187°
2026-05-07 20:39 53.29761 8.33730 6796 ft 296 kts 187°
2026-05-07 20:39 53.27802 8.33241 6656 ft 281 kts 187°
2026-05-07 20:39 53.25894 8.32766 6548 ft 266 kts 187°
2026-05-07 20:40 53.24704 8.32470 6464 ft 257 kts 187°
2026-05-07 20:40 53.22436 8.31907 6284 ft 241 kts 186°
2026-05-07 20:40 53.20819 8.31509 6154 ft 229 kts 186°
2026-05-07 20:40 53.19274 8.31126 6022 ft 220 kts 186°
2026-05-07 20:41 53.17785 8.30758 5804 ft 214 kts 186°
2026-05-07 20:41 53.16316 8.30398 5533 ft 213 kts 186°
2026-05-07 20:41 53.15336 8.30158 5463 ft 207 kts 186°
2026-05-07 20:41 53.13940 8.29815 5411 ft 198 kts 185°
2026-05-07 20:42 53.12589 8.29481 5365 ft 195 kts 185°
2026-05-07 20:42 53.11260 8.29354 5277 ft 187 kts 167°
2026-05-07 20:42 53.10134 8.30114 5153 ft 170 kts 139°
2026-05-07 20:42 53.09419 8.31533 4993 ft 149 kts 113°
2026-05-07 20:43 53.09017 8.33058 4702 ft 144 kts 111°
2026-05-07 20:43 53.08618 8.34575 4357 ft 142 kts 111°
2026-05-07 20:43 53.08225 8.36075 4098 ft 138 kts 111°
2026-05-07 20:43 53.07845 8.37533 3895 ft 134 kts 111°
2026-05-07 20:44 53.07480 8.38933 3640 ft 133 kts 111°
2026-05-07 20:44 53.07111 8.40345 3398 ft 133 kts 111°
2026-05-07 20:44 53.06737 8.41769 3141 ft 132 kts 111°
2026-05-07 20:44 53.06375 8.43141 3018 ft 131 kts 112°
2026-05-07 20:45 53.06009 8.44528 3009 ft 131 kts 112°
2026-05-07 20:45 53.05618 8.46011 3022 ft 150 kts 112°
2026-05-07 20:45 53.05191 8.47634 3016 ft 155 kts 112°
2026-05-07 20:45 53.04758 8.49273 3020 ft 156 kts 112°
2026-05-07 20:46 53.04352 8.50942 3010 ft 155 kts 107°
2026-05-07 20:46 53.04130 8.52702 2962 ft 156 kts 96°
2026-05-07 20:46 53.04038 8.54493 2776 ft 155 kts 93°
2026-05-07 20:46 53.04070 8.56216 2574 ft 141 kts 86°
2026-05-07 20:47 53.04167 8.57775 2313 ft 132 kts 85°
2026-05-07 20:47 53.04236 8.59267 2089 ft 128 kts 89°
2026-05-07 20:47 53.04255 8.60744 1868 ft 128 kts 91°
2026-05-07 20:47 53.04298 8.62234 1695 ft 138 kts 89°
2026-05-07 20:48 53.04350 8.63880 1652 ft 138 kts 90°
2026-05-07 20:48 53.04367 8.65434 1433 ft 132 kts 92°
2026-05-07 20:48 53.04373 8.66933 1242 ft 128 kts 90°
2026-05-07 20:48 53.04421 8.68414 1107 ft 128 kts 87°
2026-05-07 20:49 53.04479 8.69895 957 ft 129 kts 91°
2026-05-07 20:49 53.04512 8.71389 817 ft 130 kts 90°
2026-05-07 20:49 53.04560 8.72891 588 ft 130 kts 92°
2026-05-07 20:49 53.04588 8.74395 426 ft 131 kts 92°
2026-05-07 20:50 53.04624 8.75903 264 ft 130 kts 90°
2026-05-07 20:50 53.04656 8.77399 52 ft 128 kts 91°
2026-05-07 20:50 53.04684 8.78688 22 ft 75 kts 87°
2026-05-07 20:50 53.04694 8.79074 23 ft 8 kts 89°
2026-05-07 20:51 53.04720 8.79284 21 ft 10 kts 36°
2026-05-07 20:51 53.04780 8.79299 22 ft 5 kts
2026-05-07 20:51 53.04800 8.79299 22 ft 0 kts 359°
2026-05-07 20:51 53.04801 8.79299 22 ft 2 kts 359°
2026-05-07 20:52 53.04837 8.79287 25 ft 5 kts 334°
2026-05-07 20:52 53.04859 8.79246 23 ft 5 kts 296°
2026-05-07 20:52 53.04862 8.79185 22 ft 6 kts 268°
2026-05-07 20:52 53.04860 8.79115 21 ft 7 kts 268°
2026-05-07 20:53 53.04858 8.79031 20 ft 7 kts 268°
2026-05-07 20:53 53.04858 8.78996 20 ft 3 kts 268°
2026-05-07 20:53 53.04857 8.78957 20 ft 4 kts 268°
2026-05-07 20:53 53.04855 8.78891 20 ft 6 kts 266°
2026-05-07 20:54 53.04853 8.78828 21 ft 5 kts 266°
2026-05-07 20:54 53.04852 8.78766 21 ft 7 kts 269°
2026-05-07 20:54 53.04874 8.78679 22 ft 10 kts 319°
2026-05-07 20:54 53.04944 8.78653 22 ft 11 kts 358°
2026-05-07 20:55 53.05017 8.78600 22 ft 12 kts 320°
2026-05-07 20:55 53.05078 8.78512 22 ft 11 kts 319°
2026-05-07 20:55 53.05128 8.78432 22 ft 2 kts 309°
2026-05-07 20:55 53.05145 8.78421 22 ft 4 kts 355°
2026-05-07 20:56 53.05168 8.78434 22 ft 4 kts 30°
2026-05-07 20:56 53.05187 8.78455 23 ft 0 kts 33°
2026-05-07 20:56 53.05187 8.78456 23 ft 1 kts 33°
2026-05-07 20:56 53.05189 8.78458 23 ft 0 kts 33°
2026-05-07 20:57 53.05197 8.78466 23 ft 1 kts 34°
2026-05-07 20:57 53.05199 8.78469 23 ft 0 kts 34°
2026-05-07 20:57 53.05201 8.78471 23 ft 0 kts 34°